FW0385 Weather Reports


time (UTC)temp
F
wind
direction
speed
knots
gust
knots
rain 1hr
in
rain 24hr
in
rain mn
in
humidity
%
barometer
mb
20260505074544 62 196 4.3 11.3 0.00 0.00 0.00 67 1006.4
20260505073052 63 222 2.6 10.4 0.00 0.00 0.00 67 1006.3
20260505071554 63 201 5.2 12.2 0.00 0.00 0.00 66 1006.3
20260505070041 63 215 3.5 11.3 0.00 0.00 0.00 66 1006.4
20260505064541 63 204 4.3 13.9 0.00 0.00 0.00 66 1006.4
20260505063038 63 226 4.3 12.2 0.00 0.00 0.00 67 1006.4
20260505061537 63 216 6.1 13.9 0.00 0.00 0.00 67 1006.5
20260505060045 63 227 5.2 17.4 0.00 0.00 0.00 67 1006.6
20260505054534 63 171 5.2 13.9 0.00 0.00 0.00 66 1006.8
20260505053031 63 190 5.2 9.6 0.00 0.00 0.00 66 1006.8
20260505051530 63 252 6.1 11.3 0.00 0.00 0.00 67 1006.8
20260505041525 62 200 5.2 9.6 0.00 0.00 0.00 69 1006.7
20260505040020 62 167 6.1 8.7 0.00 0.00 0.00 68 1006.5
20260505034519 62 184 5.2 8.7 0.00 0.00 0.00 68 1006.6
20260505033019 63 174 4.3 8.7 0.00 0.00 0.00 68 1006.6
20260505031518 63 173 6.1 10.4 0.00 0.00 0.00 67 1006.6
20260505030018 63 173 6.1 8.7 0.00 0.00 0.00 67 1006.8
20260505024518 63 185 5.2 8.7 0.00 0.00 0.00 67 1006.7
20260505023022 63 168 6.1 8.7 0.00 0.00 0.00 67 1006.7
20260505021521 63 183 6.1 9.6 0.00 0.00 0.00 67 1006.7
20260505020017 63 171 7.8 10.4 0.00 0.00 0.00 66 1006.6
20260505014516 63 176 7.0 9.6 0.00 0.00 0.00 66 1006.7
20260505013015 63 176 6.1 8.7 0.00 0.00 0.00 66 1006.7
20260505011613 63 172 5.2 7.0 0.00 0.00 0.00 66 1006.6
20260505010110 64 175 4.3 7.8 0.00 0.00 0.00 65 1006.6
20260505004554 64 184 3.5 7.0 0.00 0.00 0.00 64 1006.7
20260505003057 65 206 2.6 10.4 0.00 0.00 0.00 64 1006.9
20260505001554 65 218 4.3 9.6 0.00 0.00 0.00 63 1006.9
20260505000100 66 205 4.3 16.5 0.00 0.00 0.00 61 1006.9
20260504234552 67 238 3.5 10.4 0.00 0.00 0.00 61 1006.8
20260504233100 67 223 3.5 14.8 0.00 0.00 0.00 61 1006.7
20260504231552 67 271 7.0 15.6 0.00 0.00 0.00 60 1006.8
20260504230059 67 171 5.2 13.0 0.00 0.00 0.00 60 1006.9
20260504224550 68 257 8.7 16.5 0.00 0.00 0.00 60 1007.1
20260504223058 68 234 7.0 11.3 0.00 0.00 0.00 60 1007.2
20260504221550 67 238 7.0 18.2 0.00 0.00 0.00 60 1006.8
20260504220049 68 222 6.1 12.2 0.00 0.00 0.00 59 1007.3
20260504214559 68 264 6.1 15.6 0.00 0.00 0.00 60 1007.1
20260504213056 68 273 9.6 20.9 0.00 0.00 0.00 58 1007.2
20260504211552 69 253 9.6 21.7 0.00 0.00 0.00 57 1006.9
20260504210047 70 233 7.8 15.6 0.00 0.00 0.00 57 1006.7
20260504204545 68 217 3.5 16.5 0.00 0.00 0.00 58 1006.8
20260504203046 69 238 9.6 19.1 0.00 0.00 0.00 56 1006.9
20260504201558 70 236 7.8 18.2 0.00 0.00 0.00 56 1007.0
20260504200045 70 274 6.1 11.3 0.00 0.00 0.00 60 1006.9
20260504194548 69 246 11.3 22.6 0.00 0.00 0.00 56 1006.9
20260504193040 70 202 9.6 18.2 0.00 0.00 0.00 54 1007.3
20260504191545 70 250 9.6 16.5 0.00 0.00 0.00 57 1007.3
20260504190037 69 188 7.0 14.8 0.00 0.00 0.00 57 1007.4
20260504184540 69 219 5.2 13.9 0.00 0.00 0.00 60 1007.6
20260504183032 68 230 6.1 16.5 0.00 0.00 0.00 59 1007.6
20260504181536 68 187 10.4 16.5 0.00 0.00 0.00 62 1007.6
20260504180030 68 229 7.8 18.2 0.00 0.00 0.00 60 1008.0
20260504174525 67 225 7.0 23.5 0.00 0.00 0.00 61 1008.3
20260504173024 66 263 10.4 20.9 0.00 0.00 0.00 60 1008.3
20260504171521 66 242 9.6 15.6 0.00 0.00 0.00 61 1008.5
20260504081537 48 169 4.3 6.1 0.00 0.00 0.00 67 1012.4